Regional Weather Roundup
Issued by NWS Little Rock, AR

Home | Current Version | Previous Version | Graphics & Text | Print | Product List | Glossary On
Versions: 1 2 3 4 5 6 7 8 9 10 11 12 13 14 15 16 17 18 19 20 21 22 23 24 25 26 27 28 29 30 31 32 33 34 35 36 37 38 39 40 41 42 43 44 45 46 47 48 49 50
000
ASUS44 KLZK 220205
RWRLZK

WEATHER ROUNDUP FOR ARKANSAS
NATIONAL WEATHER SERVICE LITTLE ROCK AR
800 PM CST SUN DEC 21 2014

NOTE: "FAIR" INDICATES FEW OR NO CLOUDS BELOW 12,000 FEET WITH NO
SIGNIFICANT WEATHER AND/OR OBSTRUCTIONS TO VISIBILITY.

ARZ001-003-010-029-220300-
NORTHWEST ARKANSAS

CITY           SKY/WX    TMP DP  RH WIND       PRES   REMARKS
FAYETTEVILLE   CLOUDY    45  38  76 SE6       29.85F
FORT SMITH     CLOUDY    47  39  74 E7        29.87F
HARRISON       CLOUDY    43  36  76 SE12      29.89F
BENTONVILLE    CLOUDY    45  36  70 SE10      29.86F
ROGERS         CLOUDY    43  37  79 SE12      29.85F
SILOAM SPGS    CLOUDY    45  34  65 SE9       29.86F
HIGHFILL       CLOUDY    44  38  79 SE10      29.84F
SPRINGDALE     CLOUDY    45  37  76 SE6G15    29.87F
$$

ARZ004-005-016-220300-
NORTH CENTRAL ARKANSAS

CITY           SKY/WX    TMP DP  RH WIND       PRES   REMARKS
BATESVILLE     CLOUDY    45  37  76 E6        29.96S
FLIPPIN        CLOUDY    45  34  65 E5        29.92S
MTN HOME       CLOUDY    43  36  76 SE7       29.91F
$$

ARZ040-041-220300-
WEST CENTRAL ARKANSAS

CITY           SKY/WX    TMP DP  RH WIND       PRES   REMARKS
MENA           CLOUDY    52  45  76 S3        29.87F
MOUNT IDA      CLOUDY    50  40  68 SE6       29.86F
$$

ARZ009-017-025-026-028-220300-
NORTHEAST ARKANSAS

CITY           SKY/WX    TMP DP  RH WIND       PRES   REMARKS
CORNING        CLOUDY    43  37  81 E6        29.99F
JONESBORO      CLOUDY    44  39  82 E6        29.98F
NEWPORT        LGT RAIN  44  41  89 E15       29.96F
WALNUT RIDGE   CLOUDY    43  37  81 E7        29.96F
BLYTHEVILLE    CLOUDY    44  37  76 E6        30.00R
$$

ARZ022-023-033-042-044-220300-
CENTRAL ARKANSAS

CITY           SKY/WX    TMP DP  RH WIND       PRES   REMARKS
LITTLE ROCK    MOCLDY    47  37  68 SE7       29.94F
N LITTLE ROCK  MOCLDY    48  39  70 SE10      29.94F
JACKSONVILLE   CLOUDY    48  37  66 E5        29.93F
SEARCY         MOCLDY    47  37  68 SE5       29.96F
HOT SPRINGS    CLOUDY    50  40  68 E7        29.91F
RUSSELLVILLE   CLOUDY    49  37  63 E6        29.91F
CLINTON        CLOUDY    48  37  66 CALM      29.95F
$$

ARZ036-220300-
EAST ARKANSAS

CITY           SKY/WX    TMP DP  RH WIND       PRES   REMARKS
WEST MEMPHIS   CLEAR     42  34  73 E6        29.97F
$$

ARZ050-053-066-070-073-220300-
SOUTHWEST ARKANSAS

CITY           SKY/WX    TMP DP  RH WIND       PRES   REMARKS
ARKADELPHIA    MOCLDY    44  43  97 NE3       29.93F
CAMDEN         PTCLDY    41  39  93 CALM      29.94F
TEXARKANA      MOCLDY    48  44  86 VRB3      29.90F
EL DORADO      PTCLDY    45  41  86 CALM      29.93S
DE QUEEN       CLOUDY    50  45  83 CALM      29.88F
$$

ARZ056-057-069-220300-
SOUTHEAST ARKANSAS

CITY           SKY/WX    TMP DP  RH WIND       PRES   REMARKS
PINE BLUFF     CLOUDY    46  39  76 E7        29.95S
STUTTGART      MOCLDY    46  36  66 E8        29.95F
MONTICELLO     CLEAR     44  38  79 CALM      29.95S

$$




USA.gov is the U.S. government's official web portal to all federal, state and local government web resources and services.